EW6113 Weather Reports


Display with metric or nautical units.
time (UTC)temp
F
wind
direction
speed
MPH
gust
MPH
rain 1hr
in
rain 24hr
in
rain mn
in
humidity
%
barometer
mb
20260905124526 53 56 0.0 3.0 0.00 0.02 0.00 93 1012.8
20260905123024 53 56 1.0 2.0 0.00 0.02 0.00 93 1012.9
20260905121526 53 56 1.0 3.0 0.00 0.02 0.00 93 1012.9
20260905120025 54 56 0.0 1.0 0.00 0.02 0.00 93 1013.0
20260905114520 54 56 0.0 2.0 0.00 0.02 0.00 93 1012.9
20260905113020 54 56 1.0 3.0 0.00 0.02 0.00 92 1013.0
20260905111519 54 56 2.0 3.0 0.00 0.02 0.00 92 1013.2
20260905110015 54 56 1.0 2.0 0.00 0.02 0.00 92 1013.2
20260905104513 55 56 0.0 2.0 0.00 0.02 0.00 92 1013.2
20260905103013 55 56 0.0 0.0 0.00 0.02 0.00 92 1013.3
20260905101512 55 56 0.0 0.0 0.00 0.02 0.00 92 1013.4
20260905100009 55 56 0.0 2.0 0.00 0.02 0.00 92 1013.4
20260905094510 55 63 0.0 2.0 0.00 0.02 0.00 92 1013.5
20260905093008 55 63 1.0 3.0 0.00 0.02 0.00 92 1013.6
20260905091506 55 63 1.0 3.0 0.00 0.02 0.00 92 1013.6
20260905090005 55 63 1.0 2.0 0.00 0.02 0.00 92 1013.7
20260905084504 56 63 0.0 3.0 0.00 0.02 0.00 91 1013.7
20260905083003 56 63 0.0 0.0 0.00 0.02 0.00 92 1013.9
20260905081503 56 63 0.0 0.0 0.00 0.02 0.00 92 1014.0
20260905080108 56 63 0.0 0.0 0.00 0.02 0.00 91 1014.1
20260905074619 56 63 0.0 0.0 0.00 0.02 0.00 91 1014.2
20260905073058 56 63 0.0 0.0 0.00 0.02 0.00 91 1014.2
20260905071557 56 63 0.0 0.0 0.00 0.02 0.00 90 1014.1
20260905070107 56 63 0.0 0.0 0.00 0.02 0.00 91 1014.1
20260905064552 57 63 0.0 0.0 0.00 0.02 0.02 90 1014.0
20260905063051 57 63 0.0 0.0 0.00 0.02 0.02 90 1014.0
20260905061609 58 63 0.0 0.0 0.00 0.02 0.02 90 1014.0
20260905060048 58 63 0.0 0.0 0.00 0.02 0.02 89 1014.0
20260905054556 58 63 0.0 2.0 0.00 0.02 0.02 89 1014.0
20260905053048 58 63 0.0 0.0 0.00 0.02 0.02 88 1014.0
20260905051547 59 63 0.0 0.0 0.00 0.02 0.02 88 1014.1
20260905050046 59 63 0.0 0.0 0.00 0.02 0.02 87 1014.1
20260905044541 60 63 0.0 3.0 0.00 0.02 0.02 88 1014.0
20260905043041 60 71 2.0 4.0 0.00 0.02 0.02 89 1013.9
20260905041544 60 79 0.0 0.0 0.00 0.02 0.02 89 1013.9
20260905040038 60 79 0.0 0.0 0.00 0.02 0.02 89 1013.6
20260905034539 61 79 0.0 0.0 0.00 0.02 0.02 90 1013.4
20260905033043 62 79 0.0 3.0 0.00 0.02 0.02 91 1013.3
20260905031537 62 76 2.0 4.0 0.00 0.02 0.02 91 1013.2
20260905030037 62 109 1.0 4.0 0.00 0.02 0.02 91 1013.1
20260905024530 62 63 1.0 5.0 0.00 0.02 0.02 90 1013.1
20260905023033 63 64 2.0 6.0 0.00 0.02 0.02 90 1013.1
20260905021529 63 67 3.0 8.0 0.00 0.02 0.02 89 1013.2
20260905020028 64 53 3.0 9.0 0.00 0.02 0.02 89 1013.1
20260905014529 64 143 4.0 11.0 0.00 0.02 0.02 89 1013.1
20260905013028 65 61 4.0 9.0 0.00 0.02 0.02 88 1013.1
20260905011527 66 123 5.0 9.0 0.00 0.02 0.02 86 1012.9
20260905010025 66 78 3.0 9.0 0.00 0.02 0.02 86 1013.0
20260905004526 66 107 3.0 10.0 0.00 0.02 0.02 87 1013.1
20260905003024 65 111 6.0 12.0 0.00 0.02 0.02 87 1013.1
20260905001523 66 96 4.0 12.0 0.00 0.02 0.02 87 1013.0
20260905000023 66 76 7.0 13.0 0.00 0.02 0.02 87 1012.9
20260904234534 65 57 5.0 12.0 0.00 0.02 0.02 87 1012.9
20260904233021 66 125 7.0 12.0 0.00 0.02 0.02 86 1012.9
20260904231521 66 95 11.0 14.0 0.00 0.02 0.02 85 1013.0
20260904230020 67 109 9.0 14.0 0.00 0.02 0.02 83 1013.1
20260904224519 68 100 6.0 14.0 0.00 0.02 0.02 83 1013.2
20260904223019 69 89 10.0 17.0 0.00 0.02 0.02 80 1013.2
20260904221518 68 107 7.0 14.0 0.00 0.02 0.02 84 1013.2
20260904220017 67 134 9.0 16.0 0.00 0.02 0.02 85 1013.2
20260904214516 68 81 10.0 15.0 0.00 0.02 0.02 83 1013.4
20260904213015 69 82 9.0 15.0 0.00 0.02 0.02 83 1013.4
20260904211514 69 95 6.0 14.0 0.00 0.02 0.02 82 1013.4
20260904210014 69 110 10.0 15.0 0.00 0.02 0.02 81 1013.5
20260904204513 69 111 9.0 15.0 0.00 0.02 0.02 82 1013.4
20260904203015 69 104 11.0 17.0 0.00 0.02 0.02 80 1013.4
20260904201512 71 107 8.0 14.0 0.00 0.02 0.02 78 1013.3
20260904200014 71 67 6.0 12.0 0.00 0.02 0.02 77 1013.3
20260904194512 71 101 7.0 13.0 0.00 0.02 0.02 76 1013.4
20260904193010 71 53 7.0 14.0 0.00 0.02 0.02 77 1013.6
20260904191509 71 118 4.0 13.0 0.00 0.02 0.02 76 1013.7
20260904190014 70 107 7.0 12.0 0.00 0.02 0.02 76 1013.9
20260904184506 71 98 5.0 11.0 0.00 0.02 0.02 77 1014.0
20260904183006 70 109 7.0 11.0 0.00 0.02 0.02 76 1014.1
20260904181504 71 105 4.0 8.0 0.00 0.02 0.02 77 1014.1
20260904180000 70 92 6.0 9.0 0.00 0.02 0.02 79 1014.1
20260904174602 69 121 4.0 9.0 0.00 0.02 0.02 81 1014.2
20260904173058 69 110 5.0 8.0 0.00 0.02 0.02 81 1014.1
20260904171600 68 108 2.0 4.0 0.00 0.02 0.02 85 1014.0
20260904170053 66 38 0.0 4.0 0.00 0.02 0.02 90 1013.9
20260904164548 64 101 2.0 6.0 0.00 0.02 0.02 92 1013.9
20260904163045 64 147 0.0 4.0 0.00 0.02 0.02 94 1013.7
20260904161543 64 289 0.0 2.0 0.00 0.02 0.02 95 1013.6
20260904160050 64 289 1.0 3.0 0.00 0.02 0.02 96 1013.6
20260904154541 63 289 0.0 3.0 0.00 0.02 0.02 97 1013.6
20260904153039 63 289 2.0 4.0 0.00 0.02 0.02 97 1013.6
20260904151538 63 289 1.0 3.0 0.00 0.02 0.02 97 1013.6
20260904150043 62 289 0.0 0.0 0.00 0.02 0.02 97 1013.5
20260904144535 62 289 0.0 0.0 0.00 0.02 0.02 97 1013.4
20260904143034 62 289 0.0 0.0 0.00 0.02 0.02 96 1013.3
20260904141532 62 289 0.0 3.0 0.00 0.02 0.02 96 1013.2
20260904140037 62 289 1.0 3.0 0.01 0.02 0.02 96 1013.1
20260904134530 62 289 2.0 4.0 0.01 0.02 0.02 96 1013.0
20260904133030 62 236 0.0 4.0 0.01 0.02 0.02 96 1012.9
20260904131528 62 193 0.0 0.0 0.01 0.02 0.02 95 1012.9
20260904130043 62 193 0.0 3.0 0.01 0.01 0.01 95 1012.8